Location: Unspecified
(0.0000°N, 0.0000°E)
Time: 11:13:15
(UTC+00:00)

LightSail 2 - Pass Details

Date: 26 November 2019
Orbit: 696 x 730 km, 24.0° (Epoch: 13 December)

Event Time Altitude Azimuth Distance (km) Brightness Sun altitude
Exits shadow 04:49:48 19° 292° (WNW) 1,641 6.4 -13.4°
Maximum altitude 04:53:30 82° 206° (SSW) 727 5.2 -12.5°
Drops below altitude 10° 04:58:45 10° 118° (ESE) 2,208 9.2 -11.3°
Sets 05:01:12 0° 117° (ESE) 3,133 10.6 -10.7°
